FW1075 Weather Reports


time (UTC)temp
C
wind
direction
speed
KPH
gust
KPH
rain 1hr
cm
rain 24hr
cm
rain mn
cm
humidity
%
barometer
mb
20260902150122 21 99 3.2 6.4 0.00 0.20 0.03 85 1018.9
20260902145122 21 109 3.2 6.4 0.00 0.20 0.03 84 1019.0
20260902144126 21 101 3.2 6.4 0.00 0.25 0.03 85 1019.0
20260902142123 21 75 4.8 6.4 0.00 0.25 0.03 87 1018.9
20260902141120 21 99 3.2 8.0 0.00 0.25 0.03 88 1019.0
20260902140120 20 76 4.8 8.0 0.00 0.25 0.03 88 1019.0
20260902135143 20 99 4.8 9.7 0.00 0.25 0.03 88 1018.6
20260902134127 20 96 4.8 8.0 0.00 0.25 0.03 88 1018.5
20260902134120 20 97 4.8 8.0 0.00 0.25 0.03 88 1018.5
20260902133120 20 89 4.8 8.0 0.00 0.25 0.03 87 1018.2
20260902132120 20 111 6.4 14.5 0.00 0.25 0.03 88 1018.5
20260902131121 20 98 6.4 9.7 0.00 0.25 0.03 90 1018.4
20260902130120 20 99 4.8 8.0 0.00 0.25 0.03 91 1018.4
20260902125120 20 122 4.8 9.7 0.00 0.25 0.03 95 1018.2
20260902124121 19 87 4.8 8.0 0.00 0.25 0.03 97 1018.2
20260902123127 19 77 4.8 6.4 0.00 0.25 0.03 99 1018.2
20260902121145 18 79 4.8 8.0 0.00 0.25 0.03 99 1018.2
20260902120146 18 87 3.2 8.0 0.00 0.25 0.03 99 1018.2
20260902115120 18 68 4.8 9.7 0.00 0.25 0.03 99 1018.2
20260902113121 18 112 4.8 6.4 0.00 0.25 0.03 99 1018.2
20260902112124 18 96 4.8 11.3 0.00 0.25 0.03 99 1018.0
20260902111121 18 48 3.2 6.4 0.00 0.25 0.03 99 1018.2
20260902110151 18 88 4.8 9.7 0.00 0.25 0.03 99 1018.2
20260902105121 18 111 4.8 9.7 0.03 0.25 0.03 99 1018.1
20260902104121 18 91 4.8 9.7 0.03 0.25 0.03 99 1017.8
20260902103120 18 91 4.8 8.0 0.03 0.25 0.03 99 1017.7
20260902102143 18 103 4.8 8.0 0.03 0.25 0.03 99 1017.6
20260902101121 18 104 4.8 9.7 0.03 0.25 0.03 99 1017.4
20260902100122 18 117 4.8 9.7 0.03 0.25 0.03 99 1017.4
20260902095121 18 55 4.8 8.0 0.00 0.23 0.00 99 1017.2
20260902094142 18 64 4.8 9.7 0.00 0.23 0.00 99 1017.2
20260902093121 18 50 3.2 8.0 0.00 0.23 0.00 99 1017.2
20260902092125 19 87 4.8 8.0 0.00 0.23 0.00 99 1017.2
20260902091121 19 26 4.8 8.0 0.00 0.23 0.00 99 1017.2
20260902090121 19 46 3.2 9.7 0.00 0.23 0.00 99 1017.2
20260902085121 19 359 1.6 4.8 0.00 0.23 0.00 99 1017.2
20260902084121 19 83 3.2 4.8 0.00 0.23 0.00 99 1017.1
20260902083121 19 91 3.2 6.4 0.00 0.23 0.00 99 1017.0
20260902082121 19 105 1.6 4.8 0.00 0.25 0.00 99 1016.9
20260902081121 18 251 3.2 6.4 0.00 0.30 0.00 99 1016.8
20260902080126 18 107 3.2 6.4 0.00 0.30 0.00 99 1016.8
20260902075121 18 119 4.8 9.7 0.00 0.33 0.00 99 1016.6
20260902074122 18 104 4.8 8.0 0.00 0.33 0.00 99 1016.2
20260902073122 18 71 3.2 11.3 0.00 0.33 0.00 99 1016.1
20260902072122 18 92 3.2 6.4 0.00 0.33 0.00 99 1016.2
20260902071121 18 108 3.2 4.8 0.00 0.33 0.00 99 1016.5
20260902070125 18 100 3.2 6.4 0.00 0.41 0.00 99 1016.5
20260902065121 18 89 3.2 8.0 0.00 0.46 0.00 99 1016.5
20260902064122 18 100 4.8 9.7 0.00 0.51 0.00 99 1016.4
20260902063143 18 63 3.2 8.0 0.00 0.51 0.00 99 1016.6
20260902062122 18 14 3.2 4.8 0.00 0.51 0.00 99 1016.5
20260902061122 18 101 4.8 9.7 0.00 0.51 0.00 99 1016.6
20260902060121 18 100 4.8 8.0 0.00 0.51 0.00 99 1016.6
20260902055121 18 82 3.2 6.4 0.00 0.53 0.00 99 1016.7
20260902054121 19 86 3.2 6.4 0.00 0.69 0.00 99 1016.8
20260902053141 19 71 4.8 9.7 0.00 0.69 0.00 99 1017.0
20260902052122 19 80 4.8 8.0 0.00 0.79 0.00 99 1017.0
20260902051122 19 24 4.8 8.0 0.00 0.84 0.00 99 1016.7
20260902050121 19 55 4.8 8.0 0.00 0.84 0.00 99 1016.7
20260902045121 19 60 4.8 8.0 0.00 0.84 0.00 99 1016.4
20260902044121 19 69 3.2 8.0 0.00 0.84 0.00 99 1016.5
20260902043121 19 82 3.2 6.4 0.00 0.84 0.00 99 1016.6
20260902042121 19 106 6.4 11.3 0.00 0.84 0.00 99 1016.2
20260902041143 19 100 6.4 16.1 0.00 0.84 0.00 99 1015.9
20260902040121 19 100 8.0 14.5 0.00 0.84 0.00 99 1015.9
20260902035123 19 94 6.4 11.3 0.00 0.84 0.84 99 1015.8
20260902034121 20 119 4.8 8.0 0.00 0.84 0.84 99 1015.6
20260902033121 20 115 4.8 11.3 0.00 0.84 0.84 99 1015.6
20260902032142 20 101 4.8 9.7 0.00 0.84 0.84 99 1015.8
20260902031126 20 80 6.4 9.7 0.00 0.84 0.84 99 1015.7
20260902030121 20 105 4.8 6.4 0.00 0.84 0.84 99 1015.7
20260902025142 20 82 4.8 8.0 0.00 0.84 0.84 99 1015.5
20260902024121 20 44 4.8 11.3 0.00 0.84 0.84 99 1015.2
20260902023142 20 86 6.4 11.3 0.00 0.84 0.84 99 1015.1
20260902022124 20 79 6.4 11.3 0.00 0.84 0.84 99 1014.9
20260902021122 20 83 3.2 14.5 0.00 0.84 0.84 99 1014.8
20260902020122 20 76 8.0 12.9 0.00 0.84 0.84 99 1014.8
20260902015122 20 100 8.0 12.9 0.00 0.84 0.84 99 1014.4
20260902014126 20 99 8.0 14.5 0.00 0.84 0.84 99 1014.2
20260902013122 20 81 8.0 11.3 0.00 0.84 0.84 99 1014.1
20260902012122 21 88 6.4 14.5 0.00 0.84 0.84 99 1013.9
20260902011122 21 86 6.4 9.7 0.00 0.84 0.84 99 1013.5
20260902010143 21 62 4.8 12.9 0.00 0.84 0.84 99 1013.5
20260902002142 24 113 0.0 0.0 0.00 0.84 0.84 99 1013.1
20260902001121 24 113 0.0 0.0 0.00 0.84 0.84 99 1013.1
20260902000121 24 113 0.0 0.0 0.00 0.84 0.84 99 1013.1
20260901235121 24 148 1.6 6.4 0.00 0.84 0.84 99 1013.0
20260901234121 24 11 1.6 6.4 0.00 0.84 0.84 99 1012.8
20260901233122 25 138 3.2 6.4 0.00 0.84 0.84 99 1013.1
20260901232122 25 126 0.0 4.8 0.00 0.84 0.84 99 1012.9
20260901231142 25 101 3.2 6.4 0.00 0.84 0.84 99 1012.7
20260901230121 25 90 0.0 3.2 0.00 0.84 0.84 98 1012.7
20260901225126 25 113 0.0 4.8 0.00 0.84 0.84 98 1012.4
20260901224121 25 93 1.6 4.8 0.00 0.84 0.84 98 1012.2
20260901223121 26 115 1.6 4.8 0.00 0.84 0.84 97 1012.4
20260901222122 26 114 1.6 6.4 0.00 0.84 0.84 96 1012.2
20260901221121 27 68 0.0 8.0 0.00 0.84 0.84 92 1012.2
20260901220122 27 74 0.0 4.8 0.00 0.84 0.84 92 1012.2
20260901215121 27 120 1.6 8.0 0.00 0.84 0.84 92 1012.2
20260901214121 26 100 3.2 8.0 0.00 0.84 0.84 93 1012.2
20260901213143 26 101 3.2 8.0 0.00 0.84 0.84 93 1012.2
20260901212122 27 113 0.0 0.0 0.00 0.84 0.84 93 1012.4
20260901211122 27 103 3.2 8.0 0.00 0.84 0.84 93 1012.2
20260901210122 26 103 1.6 6.4 0.00 0.84 0.84 93 1012.2
20260901205127 27 137 1.6 4.8 0.00 0.84 0.84 91 1012.4
20260901204122 27 130 1.6 4.8 0.00 0.84 0.84 93 1012.4
20260901203122 27 124 1.6 6.4 0.00 0.84 0.84 93 1012.2
20260901202122 28 105 1.6 6.4 0.00 0.84 0.84 91 1012.2
20260901201122 28 254 1.6 4.8 0.00 0.84 0.84 91 1012.1
20260901200125 27 167 3.2 4.8 0.00 0.84 0.84 90 1012.1
20260901195122 28 140 4.8 8.0 0.00 0.84 0.84 91 1012.1
20260901194143 27 93 3.2 6.4 0.00 0.84 0.84 91 1012.4
20260901193122 27 112 3.2 6.4 0.00 0.84 0.84 94 1012.4
20260901192122 26 90 1.6 4.8 0.00 0.84 0.84 96 1012.5
20260901191122 26 113 0.0 3.2 0.00 0.84 0.84 97 1012.5
20260901190122 26 134 1.6 4.8 0.00 0.84 0.84 94 1012.5
20260901185148 26 127 3.2 6.4 0.00 0.84 0.84 97 1012.5
20260901184122 26 240 3.2 8.0 0.00 0.84 0.84 99 1012.5
20260901183122 25 174 3.2 6.4 0.03 0.84 0.84 99 1012.6
20260901182126 25 156 3.2 4.8 0.03 0.84 0.84 99 1012.7
20260901181123 25 142 3.2 6.4 0.03 0.84 0.84 99 1012.7
20260901180123 24 229 3.2 6.4 0.03 0.84 0.84 99 1012.7
20260901175125 23 167 4.8 9.7 0.03 0.84 0.84 99 1012.2
20260901174123 23 123 3.2 4.8 0.03 0.84 0.84 99 1012.2
20260901172142 23 192 1.6 6.4 0.00 0.81 0.81 99 1013.1
20260901171121 24 126 1.6 4.8 0.00 0.81 0.81 99 1013.2
20260901170122 24 188 3.2 4.8 0.00 0.81 0.81 99 1013.2
20260901165122 23 107 1.6 4.8 0.03 0.81 0.81 99 1013.2
20260901164123 23 99 3.2 8.0 0.08 0.81 0.81 99 1012.9
20260901163144 23 236 3.2 6.4 0.10 0.81 0.81 99 1013.2
20260901162122 24 229 3.2 6.4 0.13 0.81 0.81 99 1013.4
20260901161145 24 203 0.0 0.0 0.15 0.81 0.81 99 1014.0
20260901160124 23 180 0.0 0.0 0.15 0.81 0.81 99 1014.0
20260901155122 23 203 0.0 0.0 0.13 0.79 0.79 99 1014.4
20260901154121 23 248 0.0 0.0 0.13 0.74 0.74 99 1014.4
20260901153121 24 158 0.0 0.0 0.10 0.71 0.71 99 1014.2
20260901152121 24 113 0.0 0.0 0.08 0.69 0.69 99 1014.2
20260901151121 23 158 0.0 0.0 0.05 0.66 0.66 99 1014.4